Location: Newark
(35.2672°N, 80.7344°W)
Time: 02:12:12
(UTC+00:00)

Transit 2A Rocket - Pass Details

Date: 31 January 2020
Orbit: 591 x 912 km, 66.7° (Epoch: 25 February)

Event Time Altitude Azimuth Distance (km) Brightness Sun altitude
Rises 08:12:40 0° 188° (S) 2,858 - -51.1°
Reaches altitude 10° 08:15:02 10° 180° (S) 1,935 - -50.6°
Maximum altitude 08:19:03 39° 112° (ESE) 896 - -49.8°
Drops below altitude 10° 08:23:02 10° 43° (NE) 1,927 - -49.0°
Sets 08:25:23 0° 36° (NE) 2,845 - -48.6°
